Regional Weather Roundup
Issued by NWS

Home | Current Version | Previous Version | Graphics & Text | Print | Product List | Glossary On
Versions: 1 2 3 4 5 6 7 8 9 10 11 12 13 14 15 16 17 18 19 20 21 22 23 24 25 26 27 28 29 30 31 32 33 34 35 36 37 38 39 40 41 42 43 44 45 46 47 48 49 50
000
ASUS43 KIND 030359
RWRIN

WEATHER ROUNDUP FOR INDIANA
NATIONAL WEATHER SERVICE INDIANAPOLIS IN
1200 AM EDT MON AUG 03 2015

NOTE: "FAIR" INDICATES FEW OR NO CLOUDS BELOW 12,000 FEET WITH NO
SIGNIFICANT WEATHER AND/OR OBSTRUCTIONS TO VISIBILITY.

* - STATION DOES NOT REPORT WEATHER SUCH AS PRECIPITATION OR FOG.

+ - STATION NOT QUALITY CONTROLLED BY THE NATIONAL WEATHER SERVICE.
    USE DATA WITH CAUTION...ESPECIALLY DEWPOINT AND RELATIVE
    HUMIDITY OBSERVATIONS.

INZ001>003-010>013-019-020-030500-
NORTHWEST INDIANA

CITY           SKY/WX    TMP DP  RH WIND       PRES   REMARKS
KNOX *+        PTCLDY    79  66  65 SW15      29.72F
MONTICELLO +   MOCLDY    78  73  85 SW13G18   29.77S

$$

LMZ046-743>745-030500-
SOUTHERN LAKE MICHIGAN

STATION/POSITION TIME  TEMP    WIND        PRES    WAVE
                       AIR SEA DIR/SP/G            HT
                 (UTC) (F)     (DEG/KT/KT) (MB)    (FT)
BURNS HARBOR     0300   84     220/ 22/ 32 1005.4
MICHIGAN CITY    0300   83     190/ 24/ 28   N/A
5NW MICH CITY    0300   81 74  230/ 17/ 23   N/A     5

$$

INZ004-005-014>016-021>024-030500-
NORTH CENTRAL INDIANA

CITY           SKY/WX    TMP DP  RH WIND       PRES   REMARKS
GOSHEN         CLOUDY    80  69  69 SW16      29.73S
SOUTH BEND     CLOUDY    76  63  64 N29G35    29.78R
WARSAW +       MOCLDY    79  70  73 SW8       29.76S

$$

INZ006>009-017-018-025>027-030500-
NORTHEAST INDIANA

CITY           SKY/WX    TMP DP  RH WIND       PRES   REMARKS
ANGOLA *+      MOCLDY    81  70  69 NW17      29.79R
FORT WAYNE     MOCLDY    78  66  66 SW15      29.79R

$$

INZ028-029-035-036-043>045-051>053-030500-
WEST CENTRAL INDIANA

CITY           SKY/WX    TMP DP  RH WIND       PRES   REMARKS
CRAWFORDSVL +  PTCLDY    74  66  77 S7          N/A
GREENCASTLE +  CLEAR     75  64  69 S5        29.85S
LAFAYETTE      MOCLDY    77  71  82 SW7       29.79R
TERRE HAUTE    PTCLDY    78  70  76 S9        29.84S

$$

INZ030>032-037>040-046>048-054>057-064-065-030500-
CENTRAL INDIANA

CITY           SKY/WX    TMP DP  RH WIND       PRES   REMARKS
FRANKFORT +    CLEAR     76  70  82 S10G17    29.83S
GREENWOOD *+   CLEAR     73  61  64 S7        29.85F
INDIANAPOLIS   PTCLDY    76  64  66 S13       29.82F
-EAGLE CREEK   PTCLDY    77  66  68 S9        29.83F
KOKOMO *+      PTCLDY    79  66  65 SW17G28   29.81R
MT COMFORT *+  CLEAR     73  61  64 SW8       29.85S
SHELBYVILLE    CLEAR     73  64  73 S7        29.85F

$$

INZ033-034-041-042-049-050-058-059-030500-
EAST CENTRAL INDIANA

CITY           SKY/WX    TMP DP  RH WIND       PRES   REMARKS
MUNCIE         MOCLDY    76  62  62 SW10G21   29.83S

$$

INZ060-061-067>069-081>083-085>088-030500-
SOUTHWEST INDIANA

CITY           SKY/WX    TMP DP  RH WIND       PRES   REMARKS
EVANSVILLE     CLEAR     79  67  66 S5        29.88S
HUNTINGBURG *+ CLEAR     73  63  68 S5        29.88F

$$

INZ062-063-066-070>080-084-089>092-030500-
SOUTH CENTRAL AND SOUTHEAST INDIANA

CITY           SKY/WX    TMP DP  RH WIND       PRES   REMARKS
BLOOMINGTON    CLEAR     75  64  68 S8        29.86F
MADISON *+     CLEAR     70  61  73 S5        29.91F
SEYMOUR +      CLEAR     70  64  83 S6        29.87F

$$



USA.gov is the U.S. government's official web portal to all federal, state and local government web resources and services.